FIN5AH EFHK-EPKK

Flight info

Callsign FIN5AH
Flight time 1h 41m
Altitude 34000
Route KOIVU Y123 LARTI DCT LUTAL DCT BERIL/N0452F350 DCT BOKSU/N0450F360 DCT TITUV M985 EVINA M66 KUKAM
Aircraft A321/M-SDE3FGHIRWY/LB1

Departure

Time 2026-04-25 17:06
Airport Helsinki Vantaa Airport (EFHK)

Arrival

Time 2026-04-25 18:47
Airport Kraków John Paul II International Airport (EPKK)
Time Latitude Longitude Altitude Speed Heading
2026-04-25 16:31 60.31806 24.96380 188 ft 0 kts 136°
2026-04-25 16:56 60.31809 24.96376 188 ft 2 kts 136°
2026-04-25 16:56 60.31820 24.96355 188 ft 2 kts 138°
2026-04-25 16:56 60.31830 24.96335 188 ft 2 kts 137°
2026-04-25 16:57 60.31842 24.96314 188 ft 2 kts 137°
2026-04-25 16:57 60.31849 24.96301 188 ft 2 kts 137°
2026-04-25 16:57 60.31859 24.96281 188 ft 1 kts 137°
2026-04-25 16:57 60.31861 24.96278 188 ft 0 kts 137°
2026-04-25 16:59 60.31859 24.96284 188 ft 1 kts 123°
2026-04-25 17:00 60.31860 24.96321 188 ft 4 kts 66°
2026-04-25 17:00 60.31884 24.96380 188 ft 5 kts 48°
2026-04-25 17:00 60.31907 24.96431 188 ft 4 kts 47°
2026-04-25 17:00 60.31930 24.96479 188 ft 3 kts 47°
2026-04-25 17:01 60.31936 24.96493 188 ft 2 kts 46°
2026-04-25 17:01 60.31951 24.96526 188 ft 4 kts 46°
2026-04-25 17:01 60.31977 24.96580 188 ft 6 kts 46°
2026-04-25 17:01 60.32010 24.96653 188 ft 7 kts 47°
2026-04-25 17:02 60.32048 24.96736 188 ft 8 kts 48°
2026-04-25 17:02 60.32090 24.96828 188 ft 9 kts 46°
2026-04-25 17:02 60.32134 24.96923 188 ft 9 kts 48°
2026-04-25 17:02 60.32192 24.96970 188 ft 9 kts 340°
2026-04-25 17:03 60.32256 24.96902 188 ft 10 kts 334°
2026-04-25 17:03 60.32324 24.96831 188 ft 11 kts 332°
2026-04-25 17:03 60.32378 24.96776 188 ft 3 kts 333°
2026-04-25 17:03 60.32381 24.96772 188 ft 0 kts 333°
2026-04-25 17:04 60.32391 24.96763 188 ft 5 kts 333°
2026-04-25 17:05 60.32446 24.96705 188 ft 10 kts 329°
2026-04-25 17:05 60.32456 24.96552 188 ft 0 kts 229°
2026-04-25 17:05 60.32321 24.96259 188 ft 67 kts 228°
2026-04-25 17:06 60.31836 24.95196 188 ft 136 kts 227°
2026-04-25 17:06 60.31090 24.93594 450 ft 167 kts 230°
2026-04-25 17:06 60.30257 24.91913 1097 ft 176 kts 225°
2026-04-25 17:06 60.29209 24.90611 1861 ft 180 kts 212°
2026-04-25 17:07 60.28103 24.89481 2556 ft 180 kts 214°
2026-04-25 17:07 60.27027 24.88335 3050 ft 176 kts 214°
2026-04-25 17:07 60.25929 24.87121 3346 ft 186 kts 215°
2026-04-25 17:07 60.24766 24.85793 3624 ft 198 kts 215°
2026-04-25 17:08 60.23508 24.84469 3914 ft 214 kts 206°
2026-04-25 17:08 60.22018 24.83555 4217 ft 230 kts 197°
2026-04-25 17:08 60.20414 24.82833 4514 ft 246 kts 195°
2026-04-25 17:08 60.18677 24.82092 4806 ft 264 kts 195°
2026-04-25 17:09 60.16867 24.81301 5516 ft 265 kts 195°
2026-04-25 17:09 60.15100 24.80512 6287 ft 264 kts 195°
2026-04-25 17:09 60.13308 24.79689 6885 ft 271 kts 195°
2026-04-25 17:09 60.11422 24.78819 7323 ft 284 kts 195°
2026-04-25 17:10 60.09488 24.77929 8019 ft 286 kts 195°
2026-04-25 17:10 60.07574 24.77053 8787 ft 286 kts 195°
2026-04-25 17:10 60.05625 24.76160 9505 ft 287 kts 195°
2026-04-25 17:10 60.03656 24.75257 9942 ft 299 kts 195°
2026-04-25 17:11 60.01572 24.74300 10242 ft 315 kts 195°
2026-04-25 17:11 59.99400 24.73306 10564 ft 328 kts 195°
2026-04-25 17:11 59.97160 24.72285 11113 ft 334 kts 195°
2026-04-25 17:11 59.94895 24.71254 11796 ft 335 kts 195°
2026-04-25 17:12 59.92636 24.70228 12446 ft 336 kts 195°
2026-04-25 17:12 59.90358 24.69192 13036 ft 340 kts 195°
2026-04-25 17:12 59.88074 24.68155 13639 ft 341 kts 195°
2026-04-25 17:12 59.85764 24.67111 14280 ft 342 kts 195°
2026-04-25 17:13 59.83422 24.66041 14880 ft 343 kts 196°
2026-04-25 17:13 59.82679 24.65693 15076 ft 344 kts 196°
2026-04-25 17:13 59.78769 24.63840 15992 ft 348 kts 196°
2026-04-25 17:13 59.76429 24.62731 16551 ft 349 kts 196°
2026-04-25 17:14 59.74084 24.61624 17121 ft 350 kts 196°
2026-04-25 17:14 59.71703 24.60505 17560 ft 353 kts 196°
2026-04-25 17:14 59.69329 24.59392 18059 ft 355 kts 196°
2026-04-25 17:14 59.66931 24.58268 18575 ft 356 kts 195°
2026-04-25 17:15 59.64498 24.57240 19067 ft 359 kts 194°
2026-04-25 17:15 59.62055 24.56278 19517 ft 361 kts 194°
2026-04-25 17:15 59.59610 24.55328 19938 ft 364 kts 194°
2026-04-25 17:15 59.57115 24.54356 20390 ft 366 kts 194°
2026-04-25 17:16 59.54636 24.53385 20836 ft 368 kts 194°
2026-04-25 17:16 59.52114 24.52397 21243 ft 370 kts 194°
2026-04-25 17:16 59.49616 24.51418 21687 ft 372 kts 194°
2026-04-25 17:16 59.47065 24.50415 22131 ft 373 kts 194°
2026-04-25 17:17 59.44559 24.49430 22527 ft 375 kts 194°
2026-04-25 17:17 59.41985 24.48424 22954 ft 376 kts 195°
2026-04-25 17:17 59.39412 24.47422 23352 ft 378 kts 195°
2026-04-25 17:17 59.36838 24.46416 23701 ft 381 kts 195°
2026-04-25 17:18 59.34244 24.45401 24038 ft 384 kts 195°
2026-04-25 17:18 59.31647 24.44389 24426 ft 385 kts 195°
2026-04-25 17:18 59.29007 24.43365 24769 ft 387 kts 195°
2026-04-25 17:18 59.26339 24.42329 25068 ft 390 kts 195°
2026-04-25 17:19 59.23686 24.41300 25348 ft 392 kts 195°
2026-04-25 17:19 59.21043 24.40276 25610 ft 395 kts 195°
2026-04-25 17:19 59.18344 24.39231 25872 ft 397 kts 195°
2026-04-25 17:19 59.15614 24.38177 26127 ft 399 kts 195°
2026-04-25 17:20 59.12889 24.37129 26349 ft 402 kts 195°
2026-04-25 17:20 59.10140 24.36075 26581 ft 405 kts 195°
2026-04-25 17:20 59.07410 24.35023 26818 ft 407 kts 195°
2026-04-25 17:20 59.04591 24.33944 27034 ft 410 kts 194°
2026-04-25 17:21 59.01777 24.32866 27249 ft 413 kts 194°
2026-04-25 17:21 58.98963 24.31789 27495 ft 415 kts 195°
2026-04-25 17:21 58.96145 24.30719 27730 ft 416 kts 195°
2026-04-25 17:21 58.93312 24.29638 27938 ft 418 kts 195°
2026-04-25 17:22 58.90471 24.28555 28118 ft 421 kts 195°
2026-04-25 17:22 58.88806 24.27924 28216 ft 423 kts 195°
2026-04-25 17:22 58.84913 24.26454 28510 ft 425 kts 195°
2026-04-25 17:22 58.81997 24.25352 28715 ft 427 kts 195°
2026-04-25 17:23 58.79085 24.24248 28893 ft 429 kts 195°
2026-04-25 17:23 58.76140 24.23137 29070 ft 432 kts 195°
2026-04-25 17:23 58.73205 24.22030 29302 ft 432 kts 195°
2026-04-25 17:23 58.70254 24.20925 29579 ft 432 kts 195°
2026-04-25 17:24 58.67296 24.19818 29842 ft 431 kts 195°
2026-04-25 17:24 58.64390 24.18733 30088 ft 431 kts 195°
2026-04-25 17:24 58.61442 24.17628 30284 ft 432 kts 195°
2026-04-25 17:24 58.58508 24.16534 30490 ft 433 kts 195°
2026-04-25 17:25 58.55560 24.15436 30712 ft 433 kts 195°
2026-04-25 17:25 58.52597 24.14332 30928 ft 433 kts 195°
2026-04-25 17:25 58.49659 24.13242 31131 ft 434 kts 195°
2026-04-25 17:25 58.46694 24.12144 31336 ft 434 kts 195°
2026-04-25 17:26 58.43767 24.11060 31534 ft 434 kts 195°
2026-04-25 17:26 58.40787 24.09960 31744 ft 435 kts 195°
2026-04-25 17:26 58.37853 24.08881 31922 ft 436 kts 195°
2026-04-25 17:26 58.34855 24.07775 32017 ft 438 kts 195°
2026-04-25 17:27 58.31850 24.06665 32159 ft 440 kts 195°
2026-04-25 17:27 58.28855 24.05563 32303 ft 441 kts 195°
2026-04-25 17:27 58.25883 24.04481 32536 ft 442 kts 195°
2026-04-25 17:27 58.24850 24.04105 32600 ft 442 kts 195°
2026-04-25 17:28 58.19857 24.02281 32858 ft 443 kts 195°
2026-04-25 17:28 58.16838 24.01181 32961 ft 445 kts 195°
2026-04-25 17:28 58.13811 24.00080 33110 ft 447 kts 195°
2026-04-25 17:28 58.10732 23.98963 33279 ft 448 kts 195°
2026-04-25 17:29 58.07707 23.97868 33440 ft 449 kts 195°
2026-04-25 17:29 58.04620 23.96751 33449 ft 450 kts 195°
2026-04-25 17:29 57.98499 23.94546 33465 ft 449 kts 195°
2026-04-25 17:30 57.92393 23.92353 33430 ft 448 kts 195°
2026-04-25 17:30 57.86239 23.90214 33498 ft 450 kts 195°
2026-04-25 17:31 57.80114 23.88205 33466 ft 448 kts 194°
2026-04-25 17:31 57.74005 23.86206 33504 ft 451 kts 194°
2026-04-25 17:32 57.67805 23.84172 33497 ft 453 kts 194°
2026-04-25 17:32 57.61599 23.82148 33462 ft 454 kts 194°
2026-04-25 17:33 57.55393 23.80127 33507 ft 453 kts 194°
2026-04-25 17:33 57.49240 23.78136 33488 ft 454 kts 195°
2026-04-25 17:34 57.43020 23.76122 33524 ft 454 kts 195°
2026-04-25 17:34 57.36832 23.74126 33493 ft 453 kts 195°
2026-04-25 17:35 57.30628 23.72132 33495 ft 454 kts 195°
2026-04-25 17:35 57.24475 23.70168 33555 ft 452 kts 195°
2026-04-25 17:36 57.18285 23.68186 33522 ft 452 kts 195°
2026-04-25 17:36 57.12108 23.66222 33534 ft 452 kts 195°
2026-04-25 17:37 57.05934 23.64267 33518 ft 452 kts 195°
2026-04-25 17:37 56.99778 23.62324 33522 ft 452 kts 195°
2026-04-25 17:38 56.94597 23.60688 33558 ft 453 kts 195°
2026-04-25 17:38 56.87399 23.58434 33563 ft 452 kts 195°
2026-04-25 17:39 56.81170 23.56495 33582 ft 451 kts 196°
2026-04-25 17:39 56.75037 23.54574 33570 ft 451 kts 196°
2026-04-25 17:40 56.68878 23.52668 33582 ft 449 kts 197°
2026-04-25 17:40 56.62754 23.50763 33523 ft 448 kts 196°
2026-04-25 17:41 56.56604 23.48862 33526 ft 449 kts 196°
2026-04-25 17:41 56.50491 23.46991 33566 ft 446 kts 197°
2026-04-25 17:42 56.44387 23.45111 33540 ft 446 kts 197°
2026-04-25 17:42 56.38250 23.43240 33556 ft 446 kts 197°
2026-04-25 17:43 56.35140 23.42436 33676 ft 448 kts 194°
2026-04-25 17:43 56.32081 23.41876 33586 ft 445 kts 193°
2026-04-25 17:43 56.25956 23.40720 33542 ft 445 kts 193°
2026-04-25 17:44 56.19734 23.39542 33545 ft 447 kts 193°
2026-04-25 17:44 56.13551 23.38390 33568 ft 447 kts 193°
2026-04-25 17:45 56.09439 23.37633 33660 ft 446 kts 194°
2026-04-25 17:45 56.01303 23.36127 33582 ft 442 kts 194°
2026-04-25 17:46 55.95188 23.34991 33628 ft 444 kts 193°
2026-04-25 17:46 55.89054 23.33866 33634 ft 442 kts 193°
2026-04-25 17:47 55.82943 23.32741 33625 ft 443 kts 193°
2026-04-25 17:47 55.76827 23.31628 33607 ft 440 kts 194°
2026-04-25 17:48 55.67712 23.29968 33611 ft 438 kts 194°
2026-04-25 17:49 55.61645 23.28866 33575 ft 440 kts 194°
2026-04-25 17:49 55.55559 23.27767 33594 ft 440 kts 194°
2026-04-25 17:50 55.49466 23.26662 33521 ft 438 kts 194°
2026-04-25 17:50 55.43403 23.25573 33609 ft 440 kts 194°
2026-04-25 17:51 55.37351 23.24496 33623 ft 439 kts 195°
2026-04-25 17:51 55.31281 23.23409 33589 ft 439 kts 194°
2026-04-25 17:52 55.25210 23.22329 33565 ft 438 kts 194°
2026-04-25 17:52 55.19176 23.21262 33651 ft 437 kts 195°
2026-04-25 17:53 55.13147 23.20194 33621 ft 436 kts 195°
2026-04-25 17:53 55.07115 23.19126 33556 ft 437 kts 195°
2026-04-25 17:54 55.01075 23.18062 33670 ft 438 kts 195°
2026-04-25 17:54 54.95061 23.17011 33597 ft 436 kts 195°
2026-04-25 17:55 54.89017 23.15952 33514 ft 436 kts 195°
2026-04-25 17:55 54.82946 23.14891 33654 ft 436 kts 195°
2026-04-25 17:56 54.76955 23.13852 33646 ft 435 kts 195°
2026-04-25 17:56 54.70953 23.12813 33655 ft 436 kts 195°
2026-04-25 17:57 54.64932 23.11774 33563 ft 435 kts 195°
2026-04-25 17:57 54.58926 23.10737 33738 ft 436 kts 195°
2026-04-25 17:58 54.52932 23.09710 33599 ft 433 kts 195°
2026-04-25 17:58 54.46950 23.08684 33725 ft 432 kts 195°
2026-04-25 17:59 54.41003 23.07670 33627 ft 429 kts 195°
2026-04-25 17:59 54.35155 23.06165 33551 ft 422 kts 202°
2026-04-25 18:00 54.29600 23.03497 33688 ft 414 kts 208°
2026-04-25 18:00 54.24340 22.99734 33646 ft 406 kts 215°
2026-04-25 18:01 54.19418 22.95163 33614 ft 403 kts 218°
2026-04-25 18:01 54.14537 22.90558 33677 ft 402 kts 218°
2026-04-25 18:02 54.09680 22.85986 33636 ft 400 kts 218°
2026-04-25 18:02 54.04768 22.81364 33618 ft 408 kts 218°
2026-04-25 18:03 53.99816 22.76719 33671 ft 409 kts 218°
2026-04-25 18:03 53.94838 22.72066 33661 ft 409 kts 218°
2026-04-25 18:04 53.89865 22.67433 33658 ft 409 kts 218°
2026-04-25 18:04 53.84866 22.62779 33688 ft 408 kts 218°
2026-04-25 18:05 53.79881 22.58153 33667 ft 410 kts 218°
2026-04-25 18:05 53.74882 22.53526 33677 ft 410 kts 218°
2026-04-25 18:06 53.69891 22.48922 33652 ft 412 kts 218°
2026-04-25 18:06 53.64853 22.44291 33696 ft 412 kts 218°
2026-04-25 18:07 53.59843 22.39685 33700 ft 415 kts 217°
2026-04-25 18:07 53.54767 22.35039 33682 ft 416 kts 217°
2026-04-25 18:08 53.49657 22.30381 33655 ft 416 kts 217°
2026-04-25 18:08 53.44575 22.25753 33668 ft 418 kts 217°
2026-04-25 18:09 53.39479 22.21130 33671 ft 418 kts 217°
2026-04-25 18:09 53.34357 22.16488 33678 ft 419 kts 216°
2026-04-25 18:10 53.29246 22.11876 33689 ft 420 kts 216°
2026-04-25 18:10 53.24085 22.07234 33682 ft 419 kts 217°
2026-04-25 18:11 53.18974 22.02643 33694 ft 420 kts 217°
2026-04-25 18:11 53.13908 21.97802 33693 ft 419 kts 219°
2026-04-25 18:12 53.08837 21.92866 33708 ft 420 kts 218°
2026-04-25 18:12 53.03799 21.88004 33704 ft 420 kts 218°
2026-04-25 18:13 52.98755 21.83158 33704 ft 419 kts 218°
2026-04-25 18:13 52.93725 21.78339 33714 ft 420 kts 218°
2026-04-25 18:14 52.86133 21.71095 33720 ft 422 kts 218°
2026-04-25 18:14 52.80999 21.66217 33716 ft 422 kts 218°
2026-04-25 18:15 52.75927 21.61404 33723 ft 422 kts 218°
2026-04-25 18:15 52.70797 21.56546 33728 ft 425 kts 218°
2026-04-25 18:16 52.65678 21.51725 33734 ft 424 kts 218°
2026-04-25 18:17 52.57995 21.44496 33738 ft 426 kts 218°
2026-04-25 18:17 52.52846 21.39679 33743 ft 427 kts 218°
2026-04-25 18:18 52.47606 21.34783 33738 ft 426 kts 217°
2026-04-25 18:18 52.42462 21.29988 33740 ft 428 kts 217°
2026-04-25 18:19 52.37194 21.25088 33743 ft 429 kts 217°
2026-04-25 18:19 52.32017 21.20297 33758 ft 428 kts 218°
2026-04-25 18:20 52.26814 21.15521 33775 ft 434 kts 214°
2026-04-25 18:20 52.24012 21.13664 33767 ft 445 kts 206°
2026-04-25 18:20 52.21035 21.12253 33778 ft 446 kts 204°
2026-04-25 18:21 52.15036 21.09567 33781 ft 446 kts 203°
2026-04-25 18:21 52.09029 21.06877 33775 ft 446 kts 204°
2026-04-25 18:22 52.03085 21.04187 33776 ft 446 kts 204°
2026-04-25 18:22 51.97094 21.01475 33772 ft 447 kts 204°
2026-04-25 18:23 51.91110 20.98771 33777 ft 448 kts 204°
2026-04-25 18:23 51.85110 20.96065 33775 ft 448 kts 204°
2026-04-25 18:24 51.79073 20.93353 33559 ft 447 kts 204°
2026-04-25 18:24 51.76095 20.92016 33192 ft 446 kts 204°
2026-04-25 18:24 51.73103 20.90677 32793 ft 443 kts 204°
2026-04-25 18:24 51.70141 20.89356 32407 ft 440 kts 204°
2026-04-25 18:25 51.67187 20.88038 32022 ft 440 kts 204°
2026-04-25 18:25 51.64275 20.86733 31634 ft 441 kts 204°
2026-04-25 18:25 51.61285 20.85397 31218 ft 442 kts 204°
2026-04-25 18:25 51.58331 20.84083 30796 ft 442 kts 204°
2026-04-25 18:26 51.55394 20.82776 30251 ft 441 kts 204°
2026-04-25 18:26 51.52469 20.81480 29831 ft 434 kts 203°
2026-04-25 18:26 51.49583 20.80208 29408 ft 427 kts 204°
2026-04-25 18:26 51.46746 20.78958 29001 ft 419 kts 204°
2026-04-25 18:27 51.43962 20.77732 28633 ft 411 kts 204°
2026-04-25 18:27 51.41248 20.76534 28201 ft 406 kts 204°
2026-04-25 18:27 51.38535 20.75336 27701 ft 402 kts 204°
2026-04-25 18:27 51.35870 20.74157 27182 ft 399 kts 204°
2026-04-25 18:28 51.33205 20.72983 26696 ft 395 kts 204°
2026-04-25 18:28 51.30579 20.71827 26233 ft 393 kts 204°
2026-04-25 18:28 51.27964 20.70676 25775 ft 390 kts 204°
2026-04-25 18:29 51.22768 20.68395 24821 ft 387 kts 204°
2026-04-25 18:29 51.20187 20.67266 24391 ft 381 kts 204°
2026-04-25 18:30 51.12587 20.63950 22954 ft 374 kts 204°
2026-04-25 18:30 51.10106 20.62871 22530 ft 371 kts 204°
2026-04-25 18:30 51.07630 20.61793 22101 ft 369 kts 205°
2026-04-25 18:30 51.05172 20.60725 21666 ft 366 kts 205°
2026-04-25 18:31 51.02745 20.59672 21289 ft 364 kts 205°
2026-04-25 18:31 51.00328 20.58624 20826 ft 362 kts 205°
2026-04-25 18:31 50.97907 20.57577 20452 ft 358 kts 205°
2026-04-25 18:31 50.95526 20.56537 19940 ft 358 kts 204°
2026-04-25 18:32 50.93119 20.55496 19449 ft 356 kts 204°
2026-04-25 18:32 50.90767 20.54484 19030 ft 352 kts 205°
2026-04-25 18:32 50.88415 20.53474 18668 ft 348 kts 204°
2026-04-25 18:32 50.86071 20.52463 18217 ft 348 kts 204°
2026-04-25 18:33 50.83741 20.51453 17745 ft 346 kts 204°
2026-04-25 18:33 50.81444 20.50468 17298 ft 343 kts 204°
2026-04-25 18:33 50.79137 20.49481 16888 ft 340 kts 204°
2026-04-25 18:33 50.76841 20.48493 16429 ft 339 kts 204°
2026-04-25 18:34 50.74609 20.47536 16039 ft 336 kts 204°
2026-04-25 18:34 50.72364 20.46575 15677 ft 331 kts 204°
2026-04-25 18:34 50.70157 20.45630 15331 ft 327 kts 204°
2026-04-25 18:34 50.67976 20.44700 14996 ft 322 kts 204°
2026-04-25 18:35 50.65815 20.43783 14661 ft 317 kts 204°
2026-04-25 18:35 50.63720 20.42892 14331 ft 312 kts 204°
2026-04-25 18:35 50.61653 20.42007 14007 ft 308 kts 204°
2026-04-25 18:35 50.59581 20.41125 13673 ft 303 kts 204°
2026-04-25 18:36 50.57554 20.40263 13309 ft 300 kts 204°
2026-04-25 18:36 50.55557 20.39411 12911 ft 299 kts 204°
2026-04-25 18:36 50.53547 20.38552 12507 ft 298 kts 204°
2026-04-25 18:36 50.51559 20.37705 12096 ft 297 kts 204°
2026-04-25 18:37 50.49591 20.36871 11707 ft 295 kts 203°
2026-04-25 18:37 50.47608 20.36032 11325 ft 293 kts 204°
2026-04-25 18:37 50.45652 20.35205 10914 ft 292 kts 203°
2026-04-25 18:37 50.43689 20.34349 10510 ft 289 kts 206°
2026-04-25 18:38 50.41871 20.33085 10098 ft 282 kts 215°
2026-04-25 18:38 50.40163 20.31648 9724 ft 279 kts 216°
2026-04-25 18:38 50.38459 20.30203 9420 ft 275 kts 215°
2026-04-25 18:38 50.36786 20.28814 9120 ft 271 kts 215°
2026-04-25 18:39 50.35141 20.27472 8778 ft 266 kts 215°
2026-04-25 18:39 50.33499 20.26148 8417 ft 262 kts 214°
2026-04-25 18:39 50.31907 20.24875 8048 ft 257 kts 214°
2026-04-25 18:39 50.30330 20.23619 7716 ft 253 kts 214°
2026-04-25 18:40 50.28754 20.22369 7415 ft 250 kts 214°
2026-04-25 18:40 50.27226 20.21158 7102 ft 247 kts 214°
2026-04-25 18:40 50.25699 20.19947 6775 ft 246 kts 214°
2026-04-25 18:40 50.24175 20.18740 6440 ft 244 kts 214°
2026-04-25 18:41 50.22665 20.17550 6125 ft 243 kts 214°
2026-04-25 18:41 50.21173 20.16373 5724 ft 242 kts 214°
2026-04-25 18:41 50.19678 20.15195 5433 ft 240 kts 214°
2026-04-25 18:41 50.18190 20.14025 5205 ft 236 kts 213°
2026-04-25 18:42 50.16730 20.12878 4945 ft 233 kts 213°
2026-04-25 18:42 50.16260 20.12507 4853 ft 233 kts 213°
2026-04-25 18:42 50.13863 20.10624 4357 ft 229 kts 213°
2026-04-25 18:42 50.12526 20.09359 4087 ft 219 kts 232°
2026-04-25 18:43 50.11779 20.07392 3996 ft 206 kts 255°
2026-04-25 18:43 50.11436 20.05305 3986 ft 190 kts 263°
2026-04-25 18:43 50.11214 20.03339 3775 ft 181 kts 264°
2026-04-25 18:43 50.10991 20.01478 3560 ft 170 kts 263°
2026-04-25 18:44 50.10757 19.99708 3303 ft 162 kts 262°
2026-04-25 18:44 50.10524 19.98049 3068 ft 153 kts 261°
2026-04-25 18:44 50.10297 19.96453 2858 ft 149 kts 261°
2026-04-25 18:44 50.10074 19.94889 2675 ft 147 kts 262°
2026-04-25 18:45 50.09855 19.93344 2497 ft 145 kts 262°
2026-04-25 18:45 50.09642 19.91851 2311 ft 140 kts 261°
2026-04-25 18:45 50.09435 19.90386 2138 ft 139 kts 261°
2026-04-25 18:45 50.09226 19.88903 1965 ft 139 kts 261°
2026-04-25 18:46 50.09021 19.87443 1778 ft 138 kts 261°
2026-04-25 18:46 50.08814 19.85959 1587 ft 138 kts 260°
2026-04-25 18:46 50.08609 19.84512 1383 ft 138 kts 261°
2026-04-25 18:46 50.08409 19.83066 1205 ft 137 kts 260°
2026-04-25 18:47 50.08210 19.81611 1039 ft 136 kts 259°
2026-04-25 18:47 50.08009 19.80180 855 ft 135 kts 259°
2026-04-25 18:47 50.07825 19.78830 800 ft 99 kts 257°
2026-04-25 18:47 50.07729 19.78182 800 ft 26 kts 255°
2026-04-25 18:48 50.07643 19.78095 800 ft 15 kts 181°
2026-04-25 18:48 50.07537 19.78089 800 ft 9 kts 181°
2026-04-25 18:48 50.07531 19.78088 800 ft 0 kts 181°
2026-04-25 18:48 50.07509 19.78088 800 ft 5 kts 180°
2026-04-25 18:49 50.07472 19.78134 800 ft 9 kts 100°
2026-04-25 18:49 50.07489 19.78260 800 ft 13 kts 76°
2026-04-25 18:49 50.07510 19.78411 800 ft 15 kts 78°
2026-04-25 18:49 50.07534 19.78582 800 ft 16 kts 78°
2026-04-25 18:50 50.07559 19.78762 800 ft 17 kts 77°
2026-04-25 18:50 50.07584 19.78950 800 ft 17 kts 78°
2026-04-25 18:50 50.07611 19.79136 800 ft 17 kts 78°
2026-04-25 18:50 50.07637 19.79324 800 ft 17 kts 78°
2026-04-25 18:51 50.07662 19.79513 800 ft 17 kts 78°
2026-04-25 18:51 50.07679 19.79630 800 ft 16 kts 78°
2026-04-25 18:51 50.07704 19.79829 800 ft 8 kts 95°
2026-04-25 18:51 50.07653 19.79882 800 ft 11 kts 168°
2026-04-25 18:52 50.07574 19.79909 800 ft 11 kts 167°
2026-04-25 18:52 50.07494 19.79937 800 ft 11 kts 167°
2026-04-25 18:52 50.07421 19.79968 800 ft 10 kts 150°
2026-04-25 18:52 50.07402 19.80051 800 ft 5 kts 87°
2026-04-25 18:53 50.07387 19.80092 800 ft 2 kts 153°
2026-04-25 18:53 50.07378 19.80097 800 ft 2 kts 161°
2026-04-25 18:53 50.07360 19.80105 800 ft 2 kts 165°
2026-04-25 18:53 50.07349 19.80110 800 ft 0 kts 166°